Вернуться в каталог

FENGYUN 1C DEB

АктивенPO
NORAD 31001·DEBRIS·🇨🇳 China

Запущен May 10, 1999 с Taiyuan Satellite Launch Center

Loading…

Ближайшие Пролёты (ближайшие 24 часа)

TLE

СвежийSource: Space-Track

Эпоха: Sep 14, 2026, 04:01 UTC

1 31001U 99025BCT 26257.16773404  .00001141  00000-0  31036-3 0  9997
2 31001  99.2399 158.8867 0146402  62.0401 299.5517 14.43581227 21582

Отслеживайте FENGYUN 1C DEB в реальном времени с AllMySat

Download on the App Store